| time (UTC) | temp C | wind direction | speed KPH | gust KPH | rain 1hr cm | rain 24hr cm | rain mn cm | humidity % | barometer mb |
| 20260507063017 | 7 | 0.0 | 6.4 | 0.00 | 0.00 | 0.00 | 78 | 1017.3 | |
| 20260507062036 | 7 | 0.0 | 6.4 | 0.00 | 0.00 | 0.00 | 79 | 1017.4 | |
| 20260507061018 | 6 | 23 | 1.6 | 6.4 | 0.00 | 0.00 | 0.00 | 79 | 1017.4 |
| 20260507060016 | 6 | 0.0 | 3.2 | 0.00 | 0.00 | 0.00 | 78 | 1017.5 | |
| 20260507055016 | 6 | 0.0 | 6.4 | 0.00 | 0.00 | 0.00 | 78 | 1017.5 | |
| 20260507054120 | 6 | 0 | 1.6 | 6.4 | 0.00 | 0.00 | 0.00 | 78 | 1017.5 |
| 20260507053018 | 6 | 0.0 | 6.4 | 0.00 | 0.00 | 0.00 | 79 | 1017.5 | |
| 20260507052018 | 5 | 0.0 | 4.8 | 0.00 | 0.00 | 0.00 | 78 | 1017.6 | |
| 20260507051100 | 5 | 0.0 | 3.2 | 0.00 | 0.00 | 0.00 | 78 | 1017.8 | |
| 20260507050018 | 5 | 0.0 | 3.2 | 0.00 | 0.00 | 0.00 | 78 | 1017.8 | |
| 20260507045019 | 5 | 0.0 | 1.6 | 0.00 | 0.00 | 0.00 | 77 | 1017.7 | |
| 20260507044038 | 6 | 0.0 | 3.2 | 0.00 | 0.00 | 0.00 | 77 | 1017.8 | |
| 20260507043018 | 6 | 0.0 | 1.6 | 0.00 | 0.00 | 0.00 | 77 | 1017.7 | |
| 20260507042016 | 6 | 0.0 | 1.6 | 0.00 | 0.00 | 0.00 | 76 | 1017.6 | |
| 20260507041016 | 6 | 0.0 | 1.6 | 0.00 | 0.00 | 0.00 | 76 | 1017.8 | |
| 20260507040016 | 6 | 0.0 | 1.6 | 0.00 | 0.00 | 0.00 | 76 | 1017.9 | |
| 20260507035018 | 6 | 0.0 | 0.0 | 0.00 | 0.00 | 0.00 | 76 | 1018.0 | |
| 20260507034016 | 6 | 0.0 | 0.0 | 0.00 | 0.00 | 0.00 | 75 | 1018.0 | |
| 20260507033019 | 7 | 0.0 | 1.6 | 0.00 | 0.00 | 0.00 | 75 | 1018.0 | |
| 20260507032038 | 7 | 0.0 | 1.6 | 0.00 | 0.00 | 0.00 | 74 | 1018.0 | |
| 20260507031016 | 7 | 0.0 | 1.6 | 0.00 | 0.00 | 0.00 | 74 | 1018.1 | |
| 20260507030018 | 7 | 0.0 | 1.6 | 0.00 | 0.00 | 0.00 | 74 | 1018.1 | |
| 20260507025016 | 7 | 0.0 | 1.6 | 0.00 | 0.00 | 0.00 | 74 | 1018.2 | |
| 20260507024016 | 7 | 0.0 | 1.6 | 0.00 | 0.00 | 0.00 | 73 | 1018.2 | |
| 20260507023017 | 7 | 0.0 | 1.6 | 0.00 | 0.00 | 0.00 | 73 | 1018.2 | |
| 20260507022017 | 7 | 0.0 | 1.6 | 0.00 | 0.00 | 0.00 | 73 | 1018.2 | |
| 20260507021016 | 7 | 0.0 | 1.6 | 0.00 | 0.00 | 0.00 | 74 | 1018.2 | |
| 20260507020038 | 7 | 0.0 | 3.2 | 0.00 | 0.00 | 0.00 | 73 | 1018.2 | |
| 20260507015016 | 7 | 0.0 | 1.6 | 0.00 | 0.00 | 0.00 | 73 | 1018.0 | |
| 20260507014016 | 7 | 0.0 | 1.6 | 0.00 | 0.00 | 0.00 | 72 | 1018.1 | |
| 20260507013017 | 7 | 0.0 | 1.6 | 0.00 | 0.00 | 0.00 | 72 | 1018.2 | |
| 20260507012017 | 7 | 0 | 1.6 | 6.4 | 0.00 | 0.00 | 0.00 | 71 | 1018.1 |
| 20260507011056 | 7 | 0.0 | 8.0 | 0.00 | 0.00 | 0.00 | 71 | 1018.3 | |
| 20260507010016 | 7 | 0.0 | 3.2 | 0.00 | 0.00 | 0.00 | 71 | 1018.3 | |
| 20260507005016 | 7 | 0.0 | 3.2 | 0.00 | 0.00 | 0.00 | 70 | 1018.5 | |
| 20260507004039 | 7 | 0 | 1.6 | 4.8 | 0.00 | 0.00 | 0.00 | 70 | 1018.5 |
| 20260507003016 | 7 | 0.0 | 4.8 | 0.00 | 0.00 | 0.00 | 70 | 1018.5 | |
| 20260507002037 | 7 | 0.0 | 4.8 | 0.00 | 0.00 | 0.00 | 70 | 1018.6 | |
| 20260507001016 | 7 | 0.0 | 1.6 | 0.00 | 0.00 | 0.00 | 70 | 1018.7 | |
| 20260507000038 | 7 | 0.0 | 1.6 | 0.00 | 0.00 | 0.00 | 71 | 1018.7 | |
| 20260506235016 | 7 | 0.0 | 3.2 | 0.00 | 0.00 | 0.00 | 71 | 1018.7 | |
| 20260506234017 | 7 | 0.0 | 1.6 | 0.00 | 0.00 | 0.00 | 70 | 1018.7 | |
| 20260506233017 | 7 | 0.0 | 6.4 | 0.00 | 0.00 | 0.00 | 70 | 1018.8 | |
| 20260506232017 | 7 | 0 | 1.6 | 9.7 | 0.00 | 0.00 | 0.00 | 69 | 1018.9 |
| 20260506231016 | 7 | 0 | 1.6 | 8.0 | 0.00 | 0.00 | 0.00 | 69 | 1018.9 |
| 20260506230016 | 7 | 338 | 1.6 | 9.7 | 0.00 | 0.00 | 0.00 | 68 | 1019.0 |
| 20260506225016 | 7 | 0 | 1.6 | 9.7 | 0.00 | 0.00 | 0.00 | 69 | 1019.0 |
| 20260506224016 | 8 | 0 | 1.6 | 11.3 | 0.00 | 0.00 | 0.00 | 68 | 1019.1 |
| 20260506223016 | 8 | 0 | 1.6 | 9.7 | 0.00 | 0.00 | 0.00 | 69 | 1019.1 |
| 20260506222016 | 8 | 0.0 | 3.2 | 0.00 | 0.00 | 0.00 | 68 | 1019.1 | |
| 20260506221016 | 8 | 0 | 1.6 | 4.8 | 0.00 | 0.00 | 0.00 | 68 | 1019.1 |
| 20260506220017 | 8 | 0.0 | 6.4 | 0.00 | 0.00 | 0.00 | 67 | 1019.1 | |
| 20260506215017 | 8 | 0.0 | 3.2 | 0.00 | 0.00 | 0.00 | 66 | 1019.1 | |
| 20260506214017 | 9 | 0.0 | 1.6 | 0.00 | 0.00 | 0.00 | 65 | 1019.1 | |
| 20260506213016 | 9 | 0.0 | 1.6 | 0.00 | 0.00 | 0.00 | 66 | 1019.0 | |
| 20260506212015 | 9 | 0.0 | 1.6 | 0.00 | 0.00 | 0.00 | 66 | 1019.0 | |
| 20260506211015 | 9 | 0.0 | 0.0 | 0.00 | 0.00 | 0.00 | 68 | 1019.1 | |
| 20260506210016 | 9 | 0.0 | 0.0 | 0.00 | 0.00 | 0.00 | 69 | 1019.1 | |
| 20260506205018 | 10 | 0.0 | 0.0 | 0.00 | 0.00 | 0.00 | 69 | 1019.2 | |
| 20260506204016 | 10 | 0.0 | 0.0 | 0.00 | 0.00 | 0.00 | 68 | 1019.1 | |
| 20260506203015 | 10 | 0.0 | 1.6 | 0.00 | 0.00 | 0.00 | 67 | 1019.1 | |
| 20260506202017 | 10 | 0.0 | 1.6 | 0.00 | 0.00 | 0.00 | 67 | 1019.1 | |
| 20260506201016 | 10 | 0.0 | 3.2 | 0.00 | 0.00 | 0.00 | 66 | 1019.0 | |
| 20260506200016 | 10 | 0.0 | 8.0 | 0.00 | 0.00 | 0.00 | 66 | 1019.0 | |
| 20260506195015 | 10 | 0.0 | 1.6 | 0.00 | 0.00 | 0.00 | 65 | 1018.9 | |
| 20260506194035 | 11 | 0.0 | 3.2 | 0.00 | 0.00 | 0.00 | 64 | 1018.8 | |
| 20260506193016 | 11 | 0.0 | 1.6 | 0.00 | 0.00 | 0.00 | 64 | 1018.8 | |
| 20260506192015 | 11 | 0.0 | 1.6 | 0.00 | 0.00 | 0.00 | 63 | 1018.9 | |
| 20260506191016 | 11 | 0.0 | 3.2 | 0.00 | 0.00 | 0.00 | 62 | 1018.9 | |
| 20260506190015 | 11 | 0.0 | 4.8 | 0.00 | 0.00 | 0.00 | 61 | 1018.9 | |
| 20260506185017 | 11 | 113 | 1.6 | 6.4 | 0.00 | 0.00 | 0.00 | 61 | 1018.9 |
| 20260506184017 | 11 | 90 | 1.6 | 8.0 | 0.00 | 0.00 | 0.00 | 60 | 1018.8 |
| 20260506183015 | 11 | 0.0 | 3.2 | 0.00 | 0.00 | 0.00 | 60 | 1018.8 | |
| 20260506182037 | 11 | 338 | 1.6 | 4.8 | 0.00 | 0.00 | 0.00 | 58 | 1018.7 |
| 20260506181017 | 11 | 338 | 1.6 | 6.4 | 0.00 | 0.00 | 0.00 | 57 | 1018.7 |
| 20260506180017 | 11 | 338 | 1.6 | 6.4 | 0.00 | 0.00 | 0.00 | 56 | 1018.7 |
| 20260506175017 | 11 | 338 | 1.6 | 6.4 | 0.00 | 0.00 | 0.00 | 54 | 1018.8 |
| 20260506174019 | 11 | 338 | 1.6 | 6.4 | 0.00 | 0.00 | 0.00 | 53 | 1018.9 |
| 20260506173017 | 12 | 338 | 1.6 | 6.4 | 0.00 | 0.00 | 0.00 | 52 | 1018.8 |
| 20260506172017 | 12 | 338 | 1.6 | 4.8 | 0.00 | 0.00 | 0.00 | 52 | 1018.7 |
| 20260506171019 | 12 | 338 | 1.6 | 8.0 | 0.00 | 0.00 | 0.00 | 52 | 1018.8 |
| 20260506170019 | 12 | 338 | 1.6 | 8.0 | 0.00 | 0.00 | 0.00 | 51 | 1019.0 |
| 20260506165017 | 12 | 338 | 1.6 | 6.4 | 0.00 | 0.00 | 0.00 | 51 | 1019.0 |
| 20260506164017 | 12 | 338 | 1.6 | 4.8 | 0.00 | 0.00 | 0.00 | 51 | 1019.1 |
| 20260506163018 | 12 | 338 | 1.6 | 11.3 | 0.00 | 0.00 | 0.00 | 52 | 1019.1 |
| 20260506162017 | 12 | 338 | 1.6 | 6.4 | 0.00 | 0.00 | 0.00 | 52 | 1019.1 |
| 20260506161019 | 12 | 338 | 1.6 | 9.7 | 0.00 | 0.00 | 0.00 | 51 | 1019.1 |
| 20260506160039 | 12 | 338 | 1.6 | 6.4 | 0.00 | 0.00 | 0.00 | 52 | 1019.4 |
| 20260506155017 | 12 | 23 | 1.6 | 4.8 | 0.00 | 0.00 | 0.00 | 53 | 1019.4 |
| 20260506154017 | 12 | 338 | 1.6 | 11.3 | 0.00 | 0.00 | 0.00 | 52 | 1019.4 |
| 20260506153059 | 12 | 0.0 | 1.6 | 0.00 | 0.00 | 0.00 | 50 | 1019.6 | |
| 20260506152019 | 12 | 338 | 1.6 | 4.8 | 0.00 | 0.00 | 0.00 | 49 | 1019.7 |
| 20260506151019 | 12 | 0.0 | 1.6 | 0.00 | 0.00 | 0.00 | 49 | 1019.8 | |
| 20260506150017 | 12 | 0.0 | 8.0 | 0.00 | 0.00 | 0.00 | 48 | 1019.9 | |
| 20260506145017 | 12 | 0 | 1.6 | 6.4 | 0.00 | 0.00 | 0.00 | 48 | 1019.9 |
| 20260506144017 | 12 | 0 | 1.6 | 9.7 | 0.00 | 0.00 | 0.00 | 49 | 1019.9 |
| 20260506143018 | 12 | 0 | 3.2 | 8.0 | 0.00 | 0.00 | 0.00 | 49 | 1019.9 |
| 20260506142018 | 12 | 0 | 3.2 | 9.7 | 0.00 | 0.00 | 0.00 | 48 | 1020.0 |
| 20260506141018 | 12 | 0 | 3.2 | 12.9 | 0.00 | 0.00 | 0.00 | 49 | 1020.1 |
| 20260506140037 | 12 | 225 | 1.6 | 4.8 | 0.00 | 0.00 | 0.00 | 48 | 1020.1 |
| 20260506135017 | 12 | 338 | 1.6 | 4.8 | 0.00 | 0.00 | 0.00 | 48 | 1020.3 |
| 20260506134038 | 13 | 0.0 | 6.4 | 0.00 | 0.00 | 0.00 | 47 | 1020.2 | |
| 20260506133017 | 12 | 23 | 1.6 | 6.4 | 0.00 | 0.00 | 0.00 | 48 | 1020.3 |
| 20260506132017 | 12 | 0.0 | 6.4 | 0.00 | 0.00 | 0.00 | 47 | 1020.3 | |
| 20260506131017 | 13 | 338 | 1.6 | 6.4 | 0.00 | 0.00 | 0.00 | 46 | 1020.6 |
| 20260506130017 | 13 | 338 | 1.6 | 6.4 | 0.00 | 0.00 | 0.00 | 47 | 1020.7 |
| 20260506125017 | 12 | 113 | 1.6 | 6.4 | 0.00 | 0.00 | 0.00 | 48 | 1020.7 |
| 20260506124020 | 12 | 113 | 3.2 | 9.7 | 0.00 | 0.00 | 0.00 | 47 | 1020.8 |
| 20260506123018 | 12 | 0 | 1.6 | 11.3 | 0.00 | 0.00 | 0.00 | 49 | 1020.8 |
| 20260506122017 | 11 | 0 | 1.6 | 8.0 | 0.00 | 0.00 | 0.00 | 50 | 1020.7 |
| 20260506121018 | 11 | 0 | 1.6 | 8.0 | 0.00 | 0.00 | 0.00 | 49 | 1020.8 |
| 20260506120018 | 11 | 0 | 3.2 | 8.0 | 0.00 | 0.00 | 0.00 | 50 | 1020.7 |
| 20260506115017 | 11 | 0 | 3.2 | 9.7 | 0.00 | 0.00 | 0.00 | 53 | 1020.8 |
| 20260506114017 | 11 | 0 | 3.2 | 11.3 | 0.00 | 0.00 | 0.00 | 52 | 1021.0 |
| 20260506113017 | 11 | 338 | 1.6 | 11.3 | 0.00 | 0.00 | 0.00 | 51 | 1021.1 |
| 20260506112018 | 11 | 338 | 1.6 | 8.0 | 0.00 | 0.00 | 0.00 | 52 | 1021.3 |
| 20260506111017 | 11 | 338 | 1.6 | 12.9 | 0.00 | 0.00 | 0.00 | 51 | 1021.3 |
| 20260506110016 | 10 | 0 | 3.2 | 12.9 | 0.00 | 0.00 | 0.00 | 55 | 1021.4 |
| 20260506105018 | 10 | 0 | 1.6 | 6.4 | 0.00 | 0.00 | 0.00 | 53 | 1021.4 |
| 20260506104017 | 10 | 23 | 1.6 | 12.9 | 0.00 | 0.00 | 0.00 | 54 | 1021.6 |
| 20260506103017 | 10 | 23 | 1.6 | 12.9 | 0.00 | 0.00 | 0.00 | 53 | 1021.7 |
| 20260506102037 | 10 | 0 | 1.6 | 9.7 | 0.00 | 0.00 | 0.00 | 55 | 1021.7 |
| 20260506101018 | 9 | 0 | 1.6 | 11.3 | 0.00 | 0.00 | 0.00 | 55 | 1021.8 |
| 20260506100018 | 9 | 0 | 3.2 | 11.3 | 0.00 | 0.00 | 0.00 | 56 | 1021.9 |
| 20260506095017 | 9 | 338 | 1.6 | 11.3 | 0.00 | 0.00 | 0.00 | 56 | 1022.0 |
| 20260506094016 | 9 | 338 | 1.6 | 9.7 | 0.00 | 0.00 | 0.00 | 56 | 1022.0 |
| 20260506093018 | 9 | 338 | 1.6 | 9.7 | 0.00 | 0.00 | 0.00 | 57 | 1022.1 |
| 20260506092018 | 8 | 0 | 1.6 | 8.0 | 0.00 | 0.00 | 0.00 | 59 | 1022.2 |
| 20260506091016 | 8 | 0 | 1.6 | 9.7 | 0.00 | 0.00 | 0.00 | 59 | 1022.3 |
| 20260506090016 | 8 | 338 | 1.6 | 9.7 | 0.00 | 0.00 | 0.00 | 61 | 1022.5 |
| 20260506085018 | 8 | 23 | 3.2 | 11.3 | 0.00 | 0.00 | 0.00 | 62 | 1022.4 |
| 20260506084016 | 8 | 338 | 1.6 | 8.0 | 0.00 | 0.00 | 0.00 | 62 | 1022.5 |
| 20260506083038 | 7 | 0 | 1.6 | 8.0 | 0.00 | 0.00 | 0.00 | 65 | 1022.4 |
| 20260506082016 | 7 | 338 | 1.6 | 11.3 | 0.00 | 0.00 | 0.00 | 64 | 1022.4 |
| 20260506081038 | 7 | 338 | 1.6 | 6.4 | 0.00 | 0.00 | 0.00 | 66 | 1022.3 |
| 20260506073016 | 6 | 0.0 | 3.2 | 0.00 | 0.00 | 0.00 | 71 | 1022.4 | |
| 20260506072016 | 6 | 0.0 | 1.6 | 0.00 | 0.00 | 0.00 | 72 | 1022.4 | |
| 20260506071018 | 6 | 0.0 | 1.6 | 0.00 | 0.00 | 0.00 | 74 | 1022.5 |